| time (UTC) | temp F | wind direction | speed MPH | gust MPH | rain 1hr in | rain 24hr in | rain mn in | humidity % | barometer mb |
| 20260905070008 | 57 | 262 | 10.0 | 15.0 | 0.00 | 0.00 | 0.00 | 86 | 1021.2 |
| 20260905065508 | 56 | 258 | 14.0 | 17.0 | 0.00 | 0.00 | 0.00 | 87 | 1021.0 |
| 20260905065008 | 56 | 260 | 7.0 | 11.0 | 0.00 | 0.00 | 0.00 | 87 | 1020.9 |
| 20260905064507 | 56 | 242 | 9.0 | 12.0 | 0.00 | 0.00 | 0.00 | 90 | 1021.2 |
| 20260905064007 | 56 | 249 | 9.0 | 12.0 | 0.00 | 0.00 | 0.00 | 91 | 1020.9 |
| 20260905063507 | 56 | 246 | 8.0 | 10.0 | 0.00 | 0.00 | 0.00 | 91 | 1020.9 |
| 20260905063008 | 56 | 235 | 10.0 | 16.0 | 0.00 | 0.00 | 0.00 | 91 | 1020.9 |
| 20260905062508 | 56 | 234 | 20.0 | 22.0 | 0.00 | 0.00 | 0.00 | 91 | 1020.8 |
| 20260905062007 | 56 | 230 | 9.0 | 12.0 | 0.00 | 0.00 | 0.00 | 92 | 1020.8 |
| 20260905061508 | 56 | 244 | 15.0 | 15.0 | 0.00 | 0.00 | 0.00 | 92 | 1020.8 |
| 20260905061007 | 56 | 239 | 10.0 | 11.0 | 0.00 | 0.00 | 0.00 | 91 | 1020.4 |
| 20260905060508 | 56 | 269 | 8.0 | 14.0 | 0.00 | 0.00 | 0.00 | 91 | 1020.3 |
| 20260905060008 | 56 | 240 | 9.0 | 11.0 | 0.00 | 0.00 | 0.00 | 91 | 1020.4 |
| 20260905055508 | 56 | 239 | 8.0 | 9.0 | 0.00 | 0.00 | 0.00 | 91 | 1020.5 |
| 20260905055008 | 56 | 210 | 7.0 | 9.0 | 0.00 | 0.00 | 0.00 | 90 | 1020.3 |
| 20260905054509 | 56 | 229 | 5.0 | 10.0 | 0.00 | 0.00 | 0.00 | 91 | 1020.3 |
| 20260905054007 | 55 | 238 | 8.0 | 10.0 | 0.00 | 0.00 | 0.00 | 91 | 1020.4 |
| 20260905053508 | 55 | 221 | 11.0 | 11.0 | 0.00 | 0.00 | 0.00 | 91 | 1020.1 |
| 20260905053008 | 56 | 248 | 10.0 | 13.0 | 0.00 | 0.00 | 0.00 | 89 | 1020.1 |
| 20260905052508 | 55 | 233 | 7.0 | 7.0 | 0.00 | 0.00 | 0.00 | 89 | 1020.1 |
| 20260905052007 | 55 | 249 | 6.0 | 7.0 | 0.00 | 0.00 | 0.00 | 90 | 1020.0 |
| 20260905051508 | 55 | 259 | 8.0 | 8.0 | 0.00 | 0.00 | 0.00 | 89 | 1019.9 |
| 20260905051007 | 55 | 267 | 6.0 | 6.0 | 0.00 | 0.00 | 0.00 | 89 | 1020.0 |
| 20260905050508 | 55 | 268 | 4.0 | 4.0 | 0.00 | 0.00 | 0.00 | 89 | 1019.8 |
| 20260905050007 | 55 | 313 | 1.0 | 2.0 | 0.00 | 0.00 | 0.00 | 90 | 1019.7 |
| 20260905045508 | 55 | 351 | 2.0 | 4.0 | 0.00 | 0.00 | 0.00 | 91 | 1019.7 |
| 20260905045008 | 55 | 290 | 5.0 | 7.0 | 0.00 | 0.00 | 0.00 | 87 | 1019.4 |
| 20260905044507 | 55 | 228 | 3.0 | 5.0 | 0.00 | 0.00 | 0.00 | 89 | 1019.3 |
| 20260905044007 | 55 | 229 | 9.0 | 10.0 | 0.00 | 0.00 | 0.00 | 87 | 1018.7 |
| 20260905043507 | 56 | 204 | 12.0 | 13.0 | 0.00 | 0.00 | 0.00 | 86 | 1018.9 |
| 20260905043008 | 55 | 224 | 10.0 | 13.0 | 0.00 | 0.00 | 0.00 | 86 | 1018.9 |
| 20260905042507 | 55 | 220 | 15.0 | 16.0 | 0.00 | 0.00 | 0.00 | 88 | 1018.8 |
| 20260905042008 | 55 | 209 | 9.0 | 15.0 | 0.00 | 0.00 | 0.00 | 87 | 1018.4 |
| 20260905041508 | 55 | 232 | 6.0 | 11.0 | 0.00 | 0.00 | 0.00 | 89 | 1018.6 |
| 20260905041006 | 55 | 196 | 15.0 | 19.0 | 0.00 | 0.00 | 0.00 | 90 | 1017.9 |
| 20260905040507 | 56 | 219 | 11.0 | 14.0 | 0.00 | 0.00 | 0.00 | 87 | 1018.6 |
| 20260905040007 | 56 | 227 | 11.0 | 12.0 | 0.00 | 0.00 | 0.00 | 88 | 1018.8 |
| 20260905035507 | 56 | 205 | 8.0 | 19.0 | 0.00 | 0.00 | 0.00 | 86 | 1018.9 |
| 20260905035009 | 57 | 233 | 13.0 | 16.0 | 0.00 | 0.00 | 0.00 | 87 | 1019.0 |
| 20260905034508 | 30 | 0 | 0.0 | 0.0 | 0.00 | 0.00 | 0.00 | 100 | 1019.3 |
| 20260905034008 | 57 | 271 | 16.0 | 18.0 | 0.00 | 0.00 | 0.00 | 84 | 1019.4 |
| 20260905033507 | 57 | 271 | 16.0 | 18.0 | 0.00 | 0.00 | 0.00 | 84 | 1019.2 |
| 20260905033007 | 30 | 0 | 0.0 | 0.0 | 0.00 | 0.00 | 0.00 | 100 | 1019.4 |
| 20260905032507 | 30 | 0 | 0.0 | 0.0 | 0.00 | 0.00 | 0.00 | 100 | 1019.4 |
| 20260905032007 | 30 | 0 | 0.0 | 0.0 | 0.00 | 0.00 | 0.00 | 100 | 1019.3 |
| 20260905031508 | 59 | 289 | 23.0 | 25.0 | 0.00 | 0.00 | 0.00 | 74 | 1019.1 |
| 20260905031007 | 59 | 289 | 23.0 | 25.0 | 0.00 | 0.00 | 0.00 | 74 | 1018.8 |
| 20260905030508 | 30 | 0 | 0.0 | 0.0 | 0.00 | 0.00 | 0.00 | 100 | 1018.9 |
| 20260905030008 | 30 | 0 | 0.0 | 0.0 | 0.00 | 0.00 | 0.00 | 100 | 1019.2 |
| 20260905025508 | 59 | 285 | 20.0 | 22.0 | 0.00 | 0.00 | 0.00 | 76 | 1019.4 |
| 20260905025007 | 59 | 285 | 20.0 | 22.0 | 0.00 | 0.00 | 0.00 | 76 | 1019.6 |
| 20260905024508 | 30 | 0 | 0.0 | 0.0 | 0.00 | 0.00 | 0.00 | 100 | 1019.2 |
| 20260905024008 | 30 | 0 | 0.0 | 0.0 | 0.00 | 0.00 | 0.00 | 100 | 1018.9 |
| 20260905023507 | 30 | 0 | 0.0 | 0.0 | 0.00 | 0.00 | 0.00 | 100 | 1018.5 |
| 20260905023008 | 30 | 0 | 0.0 | 0.0 | 0.00 | 0.00 | 0.00 | 100 | 1018.3 |
| 20260905022508 | 30 | 0 | 0.0 | 0.0 | 0.00 | 0.00 | 0.00 | 100 | 1018.4 |
| 20260905022007 | 30 | 0 | 0.0 | 0.0 | 0.00 | 0.00 | 0.00 | 100 | 1018.2 |
| 20260905021507 | 30 | 0 | 0.0 | 0.0 | 0.00 | 0.00 | 0.00 | 100 | 1018.3 |
| 20260905021008 | 30 | 0 | 0.0 | 0.0 | 0.00 | 0.00 | 0.00 | 100 | 1018.4 |
| 20260905020508 | 59 | 314 | 9.0 | 11.0 | 0.00 | 0.00 | 0.00 | 71 | 1018.4 |
| 20260905020007 | 59 | 314 | 9.0 | 11.0 | 0.00 | 0.00 | 0.00 | 71 | 1018.3 |
| 20260905015508 | 59 | 298 | 10.0 | 17.0 | 0.00 | 0.00 | 0.00 | 70 | 1018.3 |
| 20260905015007 | 59 | 289 | 18.0 | 20.0 | 0.00 | 0.00 | 0.00 | 70 | 1018.7 |
| 20260905014508 | 60 | 289 | 15.0 | 17.0 | 0.00 | 0.00 | 0.00 | 70 | 1018.5 |
| 20260905014008 | 62 | 301 | 21.0 | 25.0 | 0.00 | 0.00 | 0.00 | 63 | 1018.1 |
| 20260905013507 | 62 | 299 | 14.0 | 23.0 | 0.00 | 0.00 | 0.00 | 61 | 1018.3 |
| 20260905013007 | 62 | 291 | 17.0 | 22.0 | 0.00 | 0.00 | 0.00 | 61 | 1017.7 |
| 20260905012508 | 62 | 301 | 14.0 | 24.0 | 0.00 | 0.00 | 0.00 | 61 | 1017.8 |
| 20260905012007 | 62 | 307 | 14.0 | 20.0 | 0.00 | 0.00 | 0.00 | 61 | 1017.7 |
| 20260905011507 | 63 | 316 | 11.0 | 15.0 | 0.00 | 0.00 | 0.00 | 63 | 1017.7 |
| 20260905011008 | 63 | 296 | 19.0 | 22.0 | 0.00 | 0.00 | 0.00 | 64 | 1017.8 |
| 20260905010507 | 63 | 298 | 26.0 | 28.0 | 0.00 | 0.00 | 0.00 | 64 | 1017.7 |
| 20260905010008 | 63 | 308 | 14.0 | 23.0 | 0.00 | 0.00 | 0.00 | 66 | 1018.0 |
| 20260905005508 | 63 | 298 | 17.0 | 22.0 | 0.00 | 0.00 | 0.00 | 66 | 1017.7 |
| 20260905005007 | 62 | 305 | 14.0 | 16.0 | 0.00 | 0.00 | 0.00 | 67 | 1017.6 |
| 20260905004508 | 62 | 305 | 14.0 | 16.0 | 0.00 | 0.00 | 0.00 | 67 | 1017.7 |
| 20260905004007 | 62 | 318 | 5.0 | 8.0 | 0.00 | 0.00 | 0.00 | 67 | 1017.8 |
| 20260905003508 | 62 | 305 | 12.0 | 15.0 | 0.00 | 0.00 | 0.00 | 67 | 1017.8 |
| 20260905003007 | 62 | 308 | 8.0 | 14.0 | 0.00 | 0.00 | 0.00 | 67 | 1017.9 |
| 20260905002507 | 63 | 313 | 8.0 | 12.0 | 0.00 | 0.00 | 0.00 | 65 | 1017.4 |
| 20260905002007 | 62 | 301 | 8.0 | 10.0 | 0.00 | 0.00 | 0.00 | 67 | 1017.6 |
| 20260905001508 | 62 | 299 | 11.0 | 14.0 | 0.00 | 0.00 | 0.00 | 67 | 1017.5 |
| 20260905001006 | 63 | 298 | 12.0 | 16.0 | 0.00 | 0.00 | 0.00 | 66 | 1017.8 |
| 20260905000507 | 63 | 317 | 11.0 | 14.0 | 0.00 | 0.00 | 0.00 | 64 | 1017.8 |
| 20260905000009 | 63 | 327 | 12.0 | 16.0 | 0.00 | 0.00 | 0.00 | 64 | 1017.6 |
| 20260904235507 | 63 | 304 | 24.0 | 33.0 | 0.00 | 0.00 | 0.00 | 67 | 1017.5 |
| 20260904235008 | 63 | 325 | 10.0 | 15.0 | 0.00 | 0.00 | 0.00 | 69 | 1017.5 |
| 20260904234507 | 63 | 315 | 14.0 | 31.0 | 0.00 | 0.00 | 0.00 | 69 | 1017.5 |
| 20260904234008 | 63 | 298 | 20.0 | 24.0 | 0.00 | 0.00 | 0.00 | 71 | 1017.6 |
| 20260904233508 | 63 | 327 | 9.0 | 12.0 | 0.00 | 0.00 | 0.00 | 74 | 1017.4 |
| 20260904233007 | 30 | 0 | 0.0 | 0.0 | 0.00 | 0.00 | 0.00 | 100 | 1017.5 |
| 20260904232506 | 30 | 0 | 0.0 | 0.0 | 0.00 | 0.00 | 0.00 | 100 | 1017.6 |
| 20260904232007 | 30 | 0 | 0.0 | 0.0 | 0.00 | 0.00 | 0.00 | 100 | 1017.6 |
| 20260904231508 | 30 | 0 | 0.0 | 0.0 | 0.00 | 0.00 | 0.00 | 100 | 1017.5 |
| 20260904231008 | 62 | 357 | 15.0 | 16.0 | 0.00 | 0.00 | 0.00 | 75 | 1017.2 |
| 20260904230507 | 62 | 357 | 15.0 | 16.0 | 0.00 | 0.00 | 0.00 | 75 | 1017.2 |
| 20260904230007 | 62 | 11 | 12.0 | 18.0 | 0.00 | 0.00 | 0.00 | 74 | 1016.5 |
| 20260904225507 | 63 | 23 | 17.0 | 22.0 | 0.00 | 0.00 | 0.00 | 74 | 1016.7 |
| 20260904225008 | 63 | 2 | 19.0 | 21.0 | 0.00 | 0.00 | 0.00 | 74 | 1016.9 |
| 20260904224507 | 63 | 12 | 16.0 | 18.0 | 0.00 | 0.00 | 0.00 | 74 | 1016.5 |
| 20260904224008 | 63 | 19 | 21.0 | 25.0 | 0.00 | 0.00 | 0.00 | 73 | 1016.5 |
| 20260904223507 | 63 | 19 | 21.0 | 25.0 | 0.00 | 0.00 | 0.00 | 73 | 1015.7 |
| 20260904223007 | 64 | 16 | 15.0 | 19.0 | 0.00 | 0.00 | 0.00 | 73 | 1015.8 |
| 20260904222507 | 65 | 11 | 17.0 | 17.0 | 0.00 | 0.00 | 0.00 | 70 | 1015.5 |
| 20260904222007 | 66 | 10 | 10.0 | 14.0 | 0.00 | 0.00 | 0.00 | 70 | 1015.6 |
| 20260904221508 | 70 | 54 | 8.0 | 10.0 | 0.00 | 0.00 | 0.00 | 66 | 1015.2 |
| 20260904221008 | 71 | 3 | 6.0 | 6.0 | 0.00 | 0.00 | 0.00 | 65 | 1015.0 |
| 20260904220508 | 74 | 277 | 9.0 | 12.0 | 0.00 | 0.00 | 0.00 | 58 | 1014.8 |
| 20260904220008 | 74 | 277 | 9.0 | 12.0 | 0.00 | 0.00 | 0.00 | 58 | 1014.9 |
| 20260904215507 | 74 | 278 | 9.0 | 14.0 | 0.00 | 0.00 | 0.00 | 58 | 1014.6 |
| 20260904215008 | 74 | 248 | 10.0 | 16.0 | 0.00 | 0.00 | 0.00 | 58 | 1014.4 |
| 20260904214508 | 74 | 255 | 14.0 | 18.0 | 0.00 | 0.00 | 0.00 | 57 | 1014.6 |
| 20260904214008 | 74 | 265 | 15.0 | 16.0 | 0.00 | 0.00 | 0.00 | 57 | 1014.4 |
| 20260904213507 | 74 | 260 | 17.0 | 20.0 | 0.00 | 0.00 | 0.00 | 57 | 1014.3 |
| 20260904213008 | 75 | 259 | 15.0 | 18.0 | 0.00 | 0.00 | 0.00 | 57 | 1014.1 |
| 20260904212508 | 74 | 253 | 15.0 | 18.0 | 0.00 | 0.00 | 0.00 | 57 | 1014.2 |
| 20260904212008 | 75 | 257 | 13.0 | 18.0 | 0.00 | 0.00 | 0.00 | 56 | 1014.2 |
| 20260904211508 | 75 | 254 | 16.0 | 17.0 | 0.00 | 0.00 | 0.00 | 56 | 1013.9 |
| 20260904211007 | 75 | 244 | 16.0 | 20.0 | 0.00 | 0.00 | 0.00 | 55 | 1014.1 |
| 20260904210508 | 75 | 254 | 14.0 | 19.0 | 0.00 | 0.00 | 0.00 | 55 | 1014.2 |
| 20260904210008 | 75 | 259 | 9.0 | 12.0 | 0.00 | 0.00 | 0.00 | 55 | 1013.9 |
| 20260904205507 | 75 | 253 | 17.0 | 20.0 | 0.00 | 0.00 | 0.00 | 55 | 1014.0 |
| 20260904205008 | 76 | 271 | 7.0 | 12.0 | 0.00 | 0.00 | 0.00 | 55 | 1014.2 |
| 20260904204508 | 76 | 258 | 17.0 | 19.0 | 0.00 | 0.00 | 0.00 | 55 | 1014.1 |
| 20260904204008 | 76 | 239 | 10.0 | 15.0 | 0.00 | 0.00 | 0.00 | 54 | 1014.0 |
| 20260904203508 | 76 | 231 | 12.0 | 14.0 | 0.00 | 0.00 | 0.00 | 54 | 1014.1 |
| 20260904203008 | 76 | 244 | 13.0 | 15.0 | 0.00 | 0.00 | 0.00 | 54 | 1014.0 |
| 20260904202508 | 76 | 252 | 9.0 | 13.0 | 0.00 | 0.00 | 0.00 | 54 | 1014.2 |
| 20260904202008 | 76 | 243 | 14.0 | 15.0 | 0.00 | 0.00 | 0.00 | 54 | 1014.2 |
| 20260904201507 | 76 | 232 | 9.0 | 13.0 | 0.00 | 0.00 | 0.00 | 54 | 1014.2 |
| 20260904201008 | 76 | 241 | 11.0 | 13.0 | 0.00 | 0.00 | 0.00 | 54 | 1014.2 |
| 20260904200506 | 76 | 233 | 8.0 | 9.0 | 0.00 | 0.00 | 0.00 | 55 | 1014.3 |
| 20260904200007 | 76 | 251 | 11.0 | 11.0 | 0.00 | 0.00 | 0.00 | 55 | 1014.3 |
| 20260904195507 | 76 | 253 | 12.0 | 13.0 | 0.00 | 0.00 | 0.00 | 55 | 1014.3 |
| 20260904195008 | 76 | 251 | 12.0 | 13.0 | 0.00 | 0.00 | 0.00 | 55 | 1014.3 |
| 20260904194508 | 76 | 253 | 12.0 | 12.0 | 0.00 | 0.00 | 0.00 | 55 | 1014.5 |
| 20260904194008 | 77 | 255 | 12.0 | 13.0 | 0.00 | 0.00 | 0.00 | 54 | 1014.5 |
| 20260904193509 | 77 | 250 | 9.0 | 13.0 | 0.00 | 0.00 | 0.00 | 53 | 1014.6 |
| 20260904193008 | 77 | 250 | 8.0 | 9.0 | 0.00 | 0.00 | 0.00 | 53 | 1014.4 |
| 20260904192507 | 77 | 255 | 10.0 | 12.0 | 0.00 | 0.00 | 0.00 | 53 | 1014.5 |
| 20260904192008 | 77 | 247 | 11.0 | 14.0 | 0.00 | 0.00 | 0.00 | 52 | 1014.5 |
| 20260904191507 | 77 | 249 | 14.0 | 15.0 | 0.00 | 0.00 | 0.00 | 52 | 1014.4 |
| 20260904191007 | 77 | 238 | 15.0 | 21.0 | 0.00 | 0.00 | 0.00 | 52 | 1014.4 |
| 20260904190508 | 77 | 241 | 12.0 | 15.0 | 0.00 | 0.00 | 0.00 | 52 | 1014.3 |
| 20260904190008 | 78 | 236 | 9.0 | 14.0 | 0.00 | 0.00 | 0.00 | 52 | 1014.1 |
| 20260904185507 | 78 | 242 | 11.0 | 14.0 | 0.00 | 0.00 | 0.00 | 51 | 1014.2 |
| 20260904185008 | 78 | 227 | 6.0 | 16.0 | 0.00 | 0.00 | 0.00 | 51 | 1014.1 |
| 20260904184508 | 78 | 247 | 9.0 | 15.0 | 0.00 | 0.00 | 0.00 | 51 | 1014.4 |
| 20260904184008 | 78 | 228 | 12.0 | 14.0 | 0.00 | 0.00 | 0.00 | 51 | 1014.5 |
| 20260904183508 | 78 | 247 | 10.0 | 10.0 | 0.00 | 0.00 | 0.00 | 51 | 1014.2 |
| 20260904183008 | 78 | 240 | 12.0 | 21.0 | 0.00 | 0.00 | 0.00 | 50 | 1014.0 |
| 20260904182507 | 78 | 239 | 14.0 | 20.0 | 0.00 | 0.00 | 0.00 | 51 | 1014.2 |
| 20260904182007 | 78 | 241 | 20.0 | 21.0 | 0.00 | 0.00 | 0.00 | 51 | 1014.1 |
| 20260904181508 | 78 | 248 | 13.0 | 14.0 | 0.00 | 0.00 | 0.00 | 51 | 1014.4 |
| 20260904181007 | 78 | 255 | 11.0 | 12.0 | 0.00 | 0.00 | 0.00 | 51 | 1014.3 |
| 20260904180508 | 78 | 246 | 17.0 | 18.0 | 0.00 | 0.00 | 0.00 | 51 | 1014.3 |
| 20260904180007 | 78 | 236 | 9.0 | 11.0 | 0.00 | 0.00 | 0.00 | 51 | 1014.2 |
| 20260904175507 | 78 | 253 | 11.0 | 13.0 | 0.00 | 0.00 | 0.00 | 51 | 1014.3 |
| 20260904175008 | 78 | 289 | 7.0 | 12.0 | 0.00 | 0.00 | 0.00 | 50 | 1014.4 |
| 20260904174507 | 79 | 258 | 10.0 | 11.0 | 0.00 | 0.00 | 0.00 | 50 | 1014.4 |
| 20260904174007 | 79 | 274 | 8.0 | 16.0 | 0.00 | 0.00 | 0.00 | 50 | 1014.6 |
| 20260904173507 | 79 | 268 | 19.0 | 20.0 | 0.00 | 0.00 | 0.00 | 49 | 1014.6 |
| 20260904173008 | 79 | 267 | 9.0 | 17.0 | 0.00 | 0.00 | 0.00 | 49 | 1014.6 |
| 20260904172507 | 79 | 267 | 13.0 | 14.0 | 0.00 | 0.00 | 0.00 | 49 | 1014.5 |
| 20260904172007 | 79 | 267 | 14.0 | 15.0 | 0.00 | 0.00 | 0.00 | 49 | 1014.5 |
| 20260904171507 | 79 | 243 | 11.0 | 18.0 | 0.00 | 0.00 | 0.00 | 50 | 1014.7 |
| 20260904171007 | 79 | 283 | 12.0 | 14.0 | 0.00 | 0.00 | 0.00 | 50 | 1014.6 |
| 20260904170507 | 79 | 269 | 10.0 | 14.0 | 0.00 | 0.00 | 0.00 | 49 | 1014.5 |
| 20260904170008 | 80 | 279 | 16.0 | 21.0 | 0.00 | 0.00 | 0.00 | 49 | 1014.6 |
| 20260904165508 | 80 | 265 | 15.0 | 17.0 | 0.00 | 0.00 | 0.00 | 48 | 1014.1 |
| 20260904165008 | 80 | 267 | 11.0 | 12.0 | 0.00 | 0.00 | 0.00 | 48 | 1014.4 |
| 20260904164508 | 80 | 274 | 17.0 | 18.0 | 0.00 | 0.00 | 0.00 | 49 | 1014.1 |
| 20260904164008 | 80 | 210 | 8.0 | 20.0 | 0.00 | 0.00 | 0.00 | 49 | 1014.4 |
| 20260904163507 | 80 | 259 | 10.0 | 13.0 | 0.00 | 0.00 | 0.00 | 48 | 1014.5 |
| 20260904163008 | 80 | 260 | 18.0 | 18.0 | 0.00 | 0.00 | 0.00 | 49 | 1014.3 |
| 20260904162507 | 80 | 273 | 14.0 | 24.0 | 0.00 | 0.00 | 0.00 | 48 | 1014.4 |
| 20260904162007 | 80 | 271 | 19.0 | 20.0 | 0.00 | 0.00 | 0.00 | 48 | 1014.3 |
| 20260904161508 | 80 | 244 | 18.0 | 19.0 | 0.00 | 0.00 | 0.00 | 48 | 1014.1 |
| 20260904161007 | 80 | 271 | 11.0 | 14.0 | 0.00 | 0.00 | 0.00 | 48 | 1014.3 |
| 20260904160508 | 80 | 250 | 19.0 | 21.0 | 0.00 | 0.00 | 0.00 | 48 | 1014.1 |
| 20260904160008 | 80 | 230 | 15.0 | 17.0 | 0.00 | 0.00 | 0.00 | 48 | 1014.4 |
| 20260904155508 | 80 | 265 | 11.0 | 26.0 | 0.00 | 0.00 | 0.00 | 48 | 1014.0 |
| 20260904155008 | 80 | 230 | 13.0 | 20.0 | 0.00 | 0.00 | 0.00 | 48 | 1014.2 |
| 20260904154508 | 80 | 248 | 17.0 | 23.0 | 0.00 | 0.00 | 0.00 | 48 | 1014.2 |
| 20260904154007 | 80 | 252 | 6.0 | 25.0 | 0.00 | 0.00 | 0.00 | 49 | 1014.4 |
| 20260904153508 | 80 | 257 | 15.0 | 21.0 | 0.00 | 0.00 | 0.00 | 48 | 1014.4 |
| 20260904153008 | 80 | 253 | 21.0 | 25.0 | 0.00 | 0.00 | 0.00 | 48 | 1014.4 |
| 20260904152508 | 80 | 245 | 13.0 | 19.0 | 0.00 | 0.00 | 0.00 | 48 | 1014.2 |
| 20260904152008 | 80 | 256 | 9.0 | 16.0 | 0.00 | 0.00 | 0.00 | 50 | 1014.5 |
| 20260904151507 | 80 | 249 | 22.0 | 23.0 | 0.00 | 0.00 | 0.00 | 49 | 1014.6 |
| 20260904151007 | 80 | 250 | 13.0 | 21.0 | 0.00 | 0.00 | 0.00 | 50 | 1014.8 |
| 20260904150509 | 80 | 235 | 22.0 | 23.0 | 0.00 | 0.00 | 0.00 | 49 | 1014.6 |
| 20260904150009 | 80 | 237 | 20.0 | 21.0 | 0.00 | 0.00 | 0.00 | 49 | 1014.8 |
| 20260904145508 | 80 | 253 | 22.0 | 27.0 | 0.00 | 0.00 | 0.00 | 50 | 1014.8 |
| 20260904145007 | 79 | 257 | 16.0 | 24.0 | 0.00 | 0.00 | 0.00 | 51 | 1014.9 |
| 20260904144508 | 79 | 231 | 23.0 | 24.0 | 0.00 | 0.00 | 0.00 | 50 | 1015.1 |
| 20260904144008 | 79 | 248 | 22.0 | 26.0 | 0.00 | 0.00 | 0.00 | 51 | 1014.7 |
| 20260904143507 | 79 | 257 | 13.0 | 25.0 | 0.00 | 0.00 | 0.00 | 50 | 1015.0 |
| 20260904143008 | 79 | 243 | 24.0 | 35.0 | 0.00 | 0.00 | 0.00 | 51 | 1015.2 |
| 20260904142508 | 79 | 240 | 27.0 | 27.0 | 0.00 | 0.00 | 0.00 | 51 | 1015.1 |
| 20260904142008 | 79 | 258 | 21.0 | 33.0 | 0.00 | 0.00 | 0.00 | 51 | 1015.5 |
| 20260904141508 | 79 | 261 | 19.0 | 25.0 | 0.00 | 0.00 | 0.00 | 51 | 1015.4 |
| 20260904141008 | 79 | 235 | 20.0 | 29.0 | 0.00 | 0.00 | 0.00 | 51 | 1015.4 |
| 20260904140507 | 78 | 239 | 18.0 | 21.0 | 0.00 | 0.00 | 0.00 | 52 | 1015.4 |
| 20260904140008 | 78 | 248 | 16.0 | 24.0 | 0.00 | 0.00 | 0.00 | 52 | 1015.5 |
| 20260904135508 | 78 | 199 | 7.0 | 20.0 | 0.00 | 0.00 | 0.00 | 53 | 1015.8 |
| 20260904135008 | 78 | 247 | 19.0 | 26.0 | 0.00 | 0.00 | 0.00 | 52 | 1016.2 |
| 20260904134508 | 78 | 272 | 11.0 | 17.0 | 0.00 | 0.00 | 0.00 | 53 | 1016.1 |
| 20260904134007 | 78 | 251 | 13.0 | 17.0 | 0.00 | 0.00 | 0.00 | 53 | 1016.0 |
| 20260904133508 | 78 | 252 | 17.0 | 22.0 | 0.00 | 0.00 | 0.00 | 53 | 1015.9 |
| 20260904133008 | 77 | 241 | 19.0 | 24.0 | 0.00 | 0.00 | 0.00 | 53 | 1016.2 |
| 20260904132508 | 78 | 256 | 22.0 | 27.0 | 0.00 | 0.00 | 0.00 | 54 | 1016.2 |
| 20260904132008 | 77 | 269 | 14.0 | 17.0 | 0.00 | 0.00 | 0.00 | 54 | 1016.4 |
| 20260904131508 | 78 | 236 | 11.0 | 12.0 | 0.00 | 0.00 | 0.00 | 54 | 1016.3 |
| 20260904131008 | 78 | 254 | 19.0 | 20.0 | 0.00 | 0.00 | 0.00 | 54 | 1016.4 |
| 20260904130509 | 77 | 266 | 17.0 | 17.0 | 0.00 | 0.00 | 0.00 | 54 | 1016.5 |
| 20260904130008 | 77 | 275 | 15.0 | 21.0 | 0.00 | 0.00 | 0.00 | 56 | 1016.9 |
| 20260904125508 | 77 | 236 | 13.0 | 23.0 | 0.00 | 0.00 | 0.00 | 55 | 1016.8 |
| 20260904125008 | 77 | 253 | 13.0 | 13.0 | 0.00 | 0.00 | 0.00 | 56 | 1016.9 |
| 20260904124508 | 77 | 279 | 10.0 | 15.0 | 0.00 | 0.00 | 0.00 | 55 | 1016.6 |
| 20260904124008 | 77 | 259 | 21.0 | 23.0 | 0.00 | 0.00 | 0.00 | 55 | 1016.9 |
| 20260904123508 | 77 | 248 | 23.0 | 29.0 | 0.00 | 0.00 | 0.00 | 54 | 1017.1 |
| 20260904123008 | 77 | 261 | 19.0 | 25.0 | 0.00 | 0.00 | 0.00 | 55 | 1017.0 |
| 20260904122507 | 77 | 244 | 15.0 | 20.0 | 0.00 | 0.00 | 0.00 | 55 | 1017.3 |
| 20260904122007 | 76 | 265 | 17.0 | 21.0 | 0.00 | 0.00 | 0.00 | 56 | 1017.1 |
| 20260904121508 | 76 | 245 | 23.0 | 27.0 | 0.00 | 0.00 | 0.00 | 57 | 1017.2 |
| 20260904121008 | 77 | 265 | 19.0 | 21.0 | 0.00 | 0.00 | 0.00 | 57 | 1017.3 |
| 20260904120509 | 76 | 247 | 17.0 | 17.0 | 0.00 | 0.00 | 0.00 | 57 | 1017.4 |
| 20260904120007 | 75 | 285 | 15.0 | 21.0 | 0.00 | 0.00 | 0.00 | 59 | 1017.4 |
| 20260904115509 | 76 | 265 | 11.0 | 17.0 | 0.00 | 0.00 | 0.00 | 58 | 1017.4 |
| 20260904115008 | 76 | 252 | 17.0 | 23.0 | 0.00 | 0.00 | 0.00 | 58 | 1017.6 |
| 20260904114507 | 76 | 234 | 28.0 | 29.0 | 0.00 | 0.00 | 0.00 | 57 | 1017.7 |
| 20260904114007 | 75 | 262 | 9.0 | 22.0 | 0.00 | 0.00 | 0.00 | 60 | 1017.4 |
| 20260904113508 | 75 | 256 | 20.0 | 24.0 | 0.00 | 0.00 | 0.00 | 60 | 1017.5 |
| 20260904113007 | 75 | 260 | 18.0 | 20.0 | 0.00 | 0.00 | 0.00 | 60 | 1017.7 |
| 20260904112507 | 75 | 253 | 19.0 | 22.0 | 0.00 | 0.00 | 0.00 | 60 | 1017.7 |
| 20260904112009 | 74 | 226 | 10.0 | 14.0 | 0.00 | 0.00 | 0.00 | 63 | 1017.8 |
| 20260904111508 | 74 | 240 | 14.0 | 25.0 | 0.00 | 0.00 | 0.00 | 62 | 1017.8 |
| 20260904111007 | 75 | 297 | 5.0 | 19.0 | 0.00 | 0.00 | 0.00 | 62 | 1017.7 |
| 20260904110509 | 74 | 274 | 14.0 | 20.0 | 0.00 | 0.00 | 0.00 | 62 | 1018.0 |
| 20260904110008 | 74 | 235 | 21.0 | 21.0 | 0.00 | 0.00 | 0.00 | 62 | 1018.0 |
| 20260904105508 | 74 | 222 | 11.0 | 25.0 | 0.00 | 0.00 | 0.00 | 63 | 1018.1 |
| 20260904105008 | 73 | 262 | 18.0 | 19.0 | 0.00 | 0.00 | 0.00 | 63 | 1018.0 |
| 20260904104508 | 73 | 253 | 14.0 | 17.0 | 0.00 | 0.00 | 0.00 | 64 | 1018.5 |
| 20260904104008 | 73 | 252 | 12.0 | 13.0 | 0.00 | 0.00 | 0.00 | 64 | 1018.3 |
| 20260904103507 | 73 | 254 | 13.0 | 17.0 | 0.00 | 0.00 | 0.00 | 64 | 1018.6 |
| 20260904103008 | 73 | 281 | 25.0 | 28.0 | 0.00 | 0.00 | 0.00 | 63 | 1018.7 |
| 20260904102507 | 73 | 254 | 17.0 | 25.0 | 0.00 | 0.00 | 0.00 | 64 | 1018.3 |
| 20260904102008 | 73 | 261 | 16.0 | 24.0 | 0.00 | 0.00 | 0.00 | 65 | 1018.4 |
| 20260904101507 | 72 | 273 | 11.0 | 21.0 | 0.00 | 0.00 | 0.00 | 65 | 1018.6 |
| 20260904101007 | 72 | 241 | 19.0 | 22.0 | 0.00 | 0.00 | 0.00 | 65 | 1018.8 |
| 20260904100506 | 72 | 254 | 16.0 | 21.0 | 0.00 | 0.00 | 0.00 | 65 | 1018.5 |
| 20260904100007 | 72 | 254 | 11.0 | 17.0 | 0.00 | 0.00 | 0.00 | 65 | 1018.8 |
| 20260904095507 | 72 | 256 | 10.0 | 25.0 | 0.00 | 0.00 | 0.00 | 66 | 1018.9 |
| 20260904095008 | 72 | 267 | 13.0 | 20.0 | 0.00 | 0.00 | 0.00 | 66 | 1018.8 |
| 20260904094508 | 72 | 259 | 20.0 | 21.0 | 0.00 | 0.00 | 0.00 | 65 | 1018.9 |
| 20260904094007 | 72 | 258 | 14.0 | 21.0 | 0.00 | 0.00 | 0.00 | 66 | 1019.0 |
| 20260904093507 | 72 | 262 | 21.0 | 22.0 | 0.00 | 0.00 | 0.00 | 65 | 1018.8 |
| 20260904093008 | 72 | 252 | 24.0 | 27.0 | 0.00 | 0.00 | 0.00 | 66 | 1019.0 |
| 20260904092507 | 71 | 261 | 23.0 | 30.0 | 0.00 | 0.00 | 0.00 | 66 | 1018.8 |
| 20260904092008 | 71 | 257 | 25.0 | 25.0 | 0.00 | 0.00 | 0.00 | 67 | 1019.1 |
| 20260904091507 | 71 | 254 | 21.0 | 26.0 | 0.00 | 0.00 | 0.00 | 66 | 1019.0 |
| 20260904091006 | 71 | 259 | 12.0 | 17.0 | 0.00 | 0.00 | 0.00 | 68 | 1018.9 |
| 20260904090509 | 71 | 230 | 15.0 | 19.0 | 0.00 | 0.00 | 0.00 | 67 | 1019.0 |
| 20260904090007 | 71 | 255 | 10.0 | 12.0 | 0.00 | 0.00 | 0.00 | 68 | 1019.2 |
| 20260904085508 | 70 | 237 | 6.0 | 8.0 | 0.00 | 0.00 | 0.00 | 68 | 1019.2 |
| 20260904085008 | 70 | 279 | 19.0 | 20.0 | 0.00 | 0.00 | 0.00 | 68 | 1019.5 |
| 20260904084508 | 69 | 249 | 14.0 | 24.0 | 0.00 | 0.00 | 0.00 | 68 | 1019.3 |
| 20260904084007 | 70 | 264 | 18.0 | 19.0 | 0.00 | 0.00 | 0.00 | 68 | 1019.4 |
| 20260904083508 | 69 | 259 | 21.0 | 22.0 | 0.00 | 0.00 | 0.00 | 69 | 1019.6 |
| 20260904083008 | 69 | 257 | 19.0 | 20.0 | 0.00 | 0.00 | 0.00 | 70 | 1019.6 |
| 20260904082507 | 69 | 251 | 12.0 | 15.0 | 0.00 | 0.00 | 0.00 | 70 | 1019.7 |
| 20260904082007 | 69 | 250 | 10.0 | 11.0 | 0.00 | 0.00 | 0.00 | 70 | 1019.5 |
| 20260904081508 | 69 | 250 | 10.0 | 16.0 | 0.00 | 0.00 | 0.00 | 71 | 1019.6 |
| 20260904081006 | 68 | 271 | 6.0 | 14.0 | 0.00 | 0.00 | 0.00 | 71 | 1019.5 |
| 20260904080508 | 68 | 245 | 8.0 | 12.0 | 0.00 | 0.00 | 0.00 | 73 | 1019.7 |
| 20260904080007 | 68 | 252 | 12.0 | 17.0 | 0.00 | 0.00 | 0.00 | 73 | 1019.7 |
| 20260904075508 | 67 | 255 | 11.0 | 15.0 | 0.00 | 0.00 | 0.00 | 74 | 1019.5 |
| 20260904075008 | 67 | 243 | 13.0 | 14.0 | 0.00 | 0.00 | 0.00 | 74 | 1019.5 |
| 20260904074508 | 67 | 248 | 17.0 | 20.0 | 0.00 | 0.00 | 0.00 | 73 | 1019.7 |
| 20260904074007 | 67 | 252 | 16.0 | 22.0 | 0.00 | 0.00 | 0.00 | 73 | 1019.6 |
| 20260904073508 | 66 | 242 | 9.0 | 13.0 | 0.00 | 0.00 | 0.00 | 74 | 1019.7 |
| 20260904073008 | 66 | 232 | 14.0 | 16.0 | 0.00 | 0.00 | 0.00 | 74 | 1019.5 |
| 20260904072508 | 66 | 250 | 13.0 | 18.0 | 0.00 | 0.00 | 0.00 | 75 | 1019.6 |
| 20260904072008 | 66 | 245 | 14.0 | 19.0 | 0.00 | 0.00 | 0.00 | 75 | 1019.6 |
| 20260904071508 | 66 | 248 | 17.0 | 19.0 | 0.00 | 0.00 | 0.00 | 75 | 1019.8 |
| 20260904071006 | 65 | 242 | 21.0 | 22.0 | 0.00 | 0.00 | 0.00 | 75 | 1019.5 |
| 20260904070507 | 65 | 212 | 10.0 | 12.0 | 0.00 | 0.00 | 0.00 | 76 | 1019.7 |